Location: Sternwarte ZA, Rosenfeld-Brittheim
(48.2889°N, 8.6789°E)
Time: 21:38:34
(UTC+01:00)

ISS - Pass Details

Date: 23 February 2021
Orbit: 417 x 422 km, 51.6° (Epoch: 02 March)

Event Time Altitude Azimuth Distance (km) Brightness Sun altitude
Exits shadow 06:20:51 10° 236° (WSW) 1,493 -1.4 -10.2°
Reaches altitude 10° 06:20:51 10° 236° (WSW) 1,492 -1.4 -10.2°
Maximum altitude 06:24:10 68° 154° (SSE) 453 -3.5 -9.7°
Drops below altitude 10° 06:27:31 10° 70° (ENE) 1,500 0.2 -9.1°
Sets 06:29:38 0° 68° (ENE) 2,367 1.3 -8.7°
